Tucson Davis Monthan, AZ

3:39 PM MST on March 27, 2017 (GMT -0700)
Davis-Monthan Air Force Base

Weather History for KDMA - November, 2012

Change the Weather History Date:

Thursday, November 8, 2012

  Actual Average Record
Temperature  
Mean Temperature 72 °F -  
Max Temperature 82 °F 75 °F 88 °F (1991)
Min Temperature 62 °F 47 °F 33 °F (2000)
Cooling Degree Days 7    
Growing Degree Days 22 (Base 50)    
Moisture  
Dew Point 36 °F    
Average Humidity 30    
Maximum Humidity 50    
Minimum Humidity 13    
Precipitation  
Precipitation 0.00 in - - ()
Sea Level Pressure  
Sea Level Pressure 29.89 in    
Wind  
Wind Speed 6 mph (South)    
Max Wind Speed 22 mph    
Max Gust Speed 30 mph    
Visibility 10 miles    
Events Rain    
Averages and records for this station are not official NWS values.
T = Trace of Precipitation, MM = Missing Value Source: NWS Daily Summary

Daily Weather History Graph

Daily Weather History Graph

Search for Another Location

Airport or City:

Trip Planner

Search our weather history database for the weather conditions in past years. The results will help you decide how hot, cold, wet, or windy it might be!

Date:

Astronomy

Nov. 08, 2012 Rise Set
Actual Time 6:46 AM MST 5:27 PM MST
Civil Twilight 6:21 AM MST 5:53 PM MST
Nautical Twilight 5:51 AM MST 6:22 PM MST
Astronomical Twilight 5:23 AM MST 6:51 PM MST
Moon 1:05 AM MST (11/8) 1:52 PM MST (11/8)
Length of Visible Light 11h 31m
Length of Day
10h 40m
Waning Crescent, 32% of the Moon is Illuminated
Nov 8
Waning Crescent
Nov 13
New
Nov 20
First Quarter
Nov 28
Full
Dec 6
Last Quarter

Hourly Weather History & Observations

Time (MST) Temp. Dew Point Humidity Pressure Visibility Wind Dir Wind Speed Gust Speed Precip Events Conditions
12:58 AM 64.8 °F 29.3 °F 26% 29.87 in 10.0 mi SE 8.1 mph - N/A   Clear
1:58 AM 64.0 °F 28.8 °F 26% 29.86 in 10.0 mi SE 6.9 mph - N/A   Clear
2:58 AM 63.7 °F 28.4 °F 26% 29.84 in 10.0 mi SE 3.5 mph - N/A   Clear
3:58 AM 63.5 °F 28.4 °F 27% 29.84 in 10.0 mi ESE 4.6 mph - N/A   Partly Cloudy
4:58 AM 63.7 °F 28.6 °F 27% 29.84 in 10.0 mi ENE 2.3 mph - N/A   Partly Cloudy
5:58 AM 63.3 °F 29.1 °F 28% 29.86 in 10.0 mi SE 8.1 mph - N/A   Partly Cloudy
6:58 AM 62.6 °F 28.6 °F 28% 29.87 in 10.0 mi Calm Calm - N/A   Clear
7:58 AM 64.8 °F 29.5 °F 27% 29.89 in 10.0 mi SSE 3.5 mph - N/A   Partly Cloudy
8:58 AM 67.8 °F 29.8 °F 24% 29.91 in 10.0 mi SE 2.3 mph - N/A   Clear
9:58 AM 72.7 °F 29.8 °F 21% 29.91 in 10.0 mi SE 4.6 mph - N/A   Clear
10:58 AM 76.6 °F 28.0 °F 17% 29.89 in 10.0 mi WNW 2.3 mph - N/A   Clear
11:58 AM 78.8 °F 29.5 °F 16% 29.86 in 10.0 mi Calm Calm - N/A   Clear
12:55 PM 80.4 °F 29.1 °F 15% 29.82 in 10.0 mi NW 4.6 mph - N/A   Clear
1:58 PM 82.2 °F 28.9 °F 14% 29.81 in 10.0 mi WNW 3.5 mph - N/A   Clear
2:58 PM 81.3 °F 26.6 °F 13% 29.80 in 10.0 mi North 4.6 mph - N/A   Clear
3:58 PM 81.0 °F 28.0 °F 14% 29.80 in 10.0 mi West 15.0 mph 20.7 mph N/A   Partly Cloudy
4:47 PM 78.8 °F 33.8 °F 20% 29.94 in 4.0 mi WNW 21.9 mph 29.9 mph N/A   Haze
4:54 PM 77.0 °F 33.8 °F 21% 29.93 in 10.0 mi SW 15.0 mph 23.0 mph N/A   Mostly Cloudy
4:58 PM 77.5 °F 34.0 °F 21% 29.84 in 6.0 mi SW 12.7 mph 27.6 mph N/A   Haze
5:04 PM 77.0 °F 33.8 °F 21% 29.94 in 10.0 mi West 13.8 mph 19.6 mph N/A   Mostly Cloudy
5:58 PM 73.9 °F 39.2 °F 28% 29.87 in 10.0 mi WNW 17.3 mph 24.2 mph N/A   Overcast
6:30 PM 73.4 °F 41.0 °F 31% 29.97 in 10.0 mi NW 10.4 mph - N/A Rain Light Rain
6:52 PM 68.0 °F 48.2 °F 49% 29.96 in 10.0 mi NE 1.2 mph - N/A   Mostly Cloudy
6:58 PM 68.7 °F 49.3 °F 50% 29.87 in 10.0 mi SW 3.5 mph - N/A   Mostly Cloudy
7:18 PM 69.8 °F 46.4 °F 43% 29.97 in 9.0 mi SW 3.5 mph - N/A   Light Drizzle
7:21 PM 69.8 °F 46.4 °F 43% 29.97 in 8.0 mi SW 3.5 mph - N/A   Mostly Cloudy
7:31 PM 69.8 °F 46.4 °F 43% 29.96 in 10.0 mi South 2.3 mph - N/A   Mostly Cloudy
7:58 PM 68.7 °F 46.6 °F 45% 29.87 in 10.0 mi SE 5.8 mph - N/A   Mostly Cloudy
8:18 PM 68.0 °F 44.6 °F 43% 29.96 in 8.0 mi SE 5.8 mph - N/A   Scattered Clouds
8:28 PM 68.0 °F 44.6 °F 43% 29.96 in 10.0 mi SE 6.9 mph - N/A   Scattered Clouds
8:58 PM 68.0 °F 43.7 °F 41% 29.87 in 10.0 mi East 5.8 mph - N/A   Scattered Clouds
9:58 PM 68.0 °F 42.8 °F 40% 29.87 in 10.0 mi East 4.6 mph - N/A   Partly Cloudy
10:58 PM 66.2 °F 42.1 °F 41% 29.85 in 10.0 mi South 6.9 mph - N/A   Clear
11:58 PM 65.1 °F 41.9 °F 43% 29.85 in 10.0 mi SE 4.6 mph - N/A   Mostly Cloudy